User: anonymous   Login
Location: Bílinka
(49.3579°N, 14.3767°E)
Time: 12:25:05
(UTC+00:00)
Language:

CZ-6A DEB - Orbit

View from above orbital plane
View from above orbital plane
View from above satellite
View from above satellite

Ground track
Ground track

The orbit data is extracted from the following two-line orbital elements,

1 54388U 22151DL  24053.91662324  .00001793  00000-0  11583-2 0  9996
2 54388  98.8264  52.7827 0092105 232.9154 126.3567 14.02071464 64987
Epoch (UTC): 22 February 2024 21:59:56
Eccentricity: 0.0092105
inclination: 98.8264°
perigee height: 820 km
apogee height: 953 km
right ascension of ascending node: 52.7827°
argument of perigee: 232.9154°
revolutions per day: 14.02071464
mean anomaly at epoch: 126.3567°
orbit number at epoch: 6498

The dashed part of the orbit path shows where the satellite is in the earth's shadow,  

DLR